Time,TemperatureF,DewpointF,PressureIn,WindDirection,WindDirectionDegrees,WindSpeedMPH,WindSpeedGustMPH,Humidity,HourlyPrecipIn,Conditions,Clouds,dailyrainin,SoftwareType,DateUTC
2013-05-12 00:13:00,61.0,-99.9,-100.00,North,-999,-999.0,-999.0,-999,0.00,,,0.10,,2013-05-12 04:13:00,
2013-05-12 00:43:00,61.0,-99.9,-100.00,North,-999,-999.0,-999.0,-999,0.00,,,0.10,,2013-05-12 04:43:00,
2013-05-12 00:53:00,61.0,-99.9,-100.00,North,-999,-999.0,-999.0,-999,0.00,,,0.10,,2013-05-12 04:53:00,
2013-05-12 01:02:00,61.0,-99.9,-100.00,North,-999,-999.0,-999.0,-999,0.00,,,0.10,,2013-05-12 05:02:00,
2013-05-12 01:12:00,61.0,-99.9,-100.00,North,-999,-999.0,-999.0,-999,0.00,,,0.10,,2013-05-12 05:12:00,
2013-05-12 01:43:00,60.0,-99.9,-100.00,North,-999,-999.0,-999.0,-999,0.00,,,0.10,,2013-05-12 05:43:00,
2013-05-12 01:52:00,60.0,-99.9,-100.00,North,-999,-999.0,-999.0,-999,0.00,,,0.10,,2013-05-12 05:52:00,
2013-05-12 02:02:00,60.0,-99.9,-100.00,North,-999,-999.0,-999.0,-999,0.00,,,0.10,,2013-05-12 06:02:00,
2013-05-12 02:11:00,60.0,-99.9,-100.00,North,-999,-999.0,-999.0,-999,0.00,,,0.10,,2013-05-12 06:11:00,
2013-05-12 02:42:00,60.0,-99.9,-100.00,North,-999,-999.0,-999.0,-999,0.01,,,0.11,,2013-05-12 06:42:00,
2013-05-12 02:52:00,60.0,-99.9,-100.00,North,-999,-999.0,-999.0,-999,0.01,,,0.11,,2013-05-12 06:52:00,
2013-05-12 03:02:00,60.0,-99.9,-100.00,North,-999,-999.0,-999.0,-999,0.01,,,0.11,,2013-05-12 07:02:00,
2013-05-12 03:11:00,60.0,-99.9,-100.00,North,-999,-999.0,-999.0,-999,0.01,,,0.11,,2013-05-12 07:11:00,
2013-05-12 03:42:00,59.0,-99.9,-100.00,North,-999,-999.0,-999.0,-999,0.00,,,0.11,,2013-05-12 07:42:00,
2013-05-12 03:52:00,59.0,-99.9,-100.00,North,-999,-999.0,-999.0,-999,0.00,,,0.11,,2013-05-12 07:52:00,
2013-05-12 04:02:00,59.0,-99.9,-100.00,North,-999,-999.0,-999.0,-999,0.00,,,0.11,,2013-05-12 08:02:00,
2013-05-12 04:12:00,59.0,-99.9,-100.00,North,-999,-999.0,-999.0,-999,0.00,,,0.11,,2013-05-12 08:12:00,
2013-05-12 04:42:00,59.0,-99.9,-100.00,North,-999,-999.0,-999.0,-999,0.00,,,0.11,,2013-05-12 08:42:00,
2013-05-12 04:53:00,59.0,-99.9,-100.00,North,-999,-999.0,-999.0,-999,0.00,,,0.11,,2013-05-12 08:53:00,
2013-05-12 05:02:00,59.0,-99.9,-100.00,North,-999,-999.0,-999.0,-999,0.00,,,0.11,,2013-05-12 09:02:00,
2013-05-12 05:11:00,59.0,-99.9,-100.00,North,-999,-999.0,-999.0,-999,0.00,,,0.11,,2013-05-12 09:11:00,
2013-05-12 05:43:00,59.0,-99.9,-100.00,North,-999,-999.0,-999.0,-999,0.00,,,0.11,,2013-05-12 09:43:00,
2013-05-12 05:53:00,59.0,-99.9,-100.00,North,-999,-999.0,-999.0,-999,0.00,,,0.11,,2013-05-12 09:53:00,
2013-05-12 06:03:00,59.0,-99.9,-100.00,North,-999,-999.0,-999.0,-999,0.00,,,0.11,,2013-05-12 10:03:00,
2013-05-12 06:12:00,59.0,-99.9,-100.00,North,-999,-999.0,-999.0,-999,0.00,,,0.11,,2013-05-12 10:12:00,
2013-05-12 06:42:00,59.0,-99.9,-100.00,North,-999,-999.0,-999.0,-999,0.00,,,0.11,,2013-05-12 10:42:00,
2013-05-12 06:53:00,59.0,-99.9,-100.00,North,-999,-999.0,-999.0,-999,0.00,,,0.11,,2013-05-12 10:53:00,
2013-05-12 07:03:00,59.0,-99.9,-100.00,North,-999,-999.0,-999.0,-999,0.00,,,0.11,,2013-05-12 11:03:00,
2013-05-12 07:12:00,59.0,-99.9,-100.00,North,-999,-999.0,-999.0,-999,0.00,,,0.11,,2013-05-12 11:12:00,
2013-05-12 07:42:00,60.0,-99.9,-100.00,North,-999,-999.0,-999.0,-999,0.01,,,0.09,,2013-05-12 11:42:00,
2013-05-12 07:52:00,60.0,-99.9,-100.00,North,-999,-999.0,-999.0,-999,0.01,,,0.09,,2013-05-12 11:52:00,
2013-05-12 08:02:00,60.0,-99.9,-100.00,North,-999,-999.0,-999.0,-999,0.01,,,0.09,,2013-05-12 12:02:00,
2013-05-12 08:12:00,60.0,-99.9,-100.00,North,-999,-999.0,-999.0,-999,0.01,,,0.09,,2013-05-12 12:12:00,
2013-05-12 08:42:00,60.0,-99.9,-100.00,North,-999,-999.0,-999.0,-999,0.04,,,0.11,,2013-05-12 12:42:00,
2013-05-12 08:52:00,60.0,-99.9,-100.00,North,-999,-999.0,-999.0,-999,0.04,,,0.11,,2013-05-12 12:52:00,
2013-05-12 09:02:00,60.0,-99.9,-100.00,North,-999,-999.0,-999.0,-999,0.04,,,0.11,,2013-05-12 13:02:00,
2013-05-12 09:11:00,60.0,-99.9,-100.00,North,-999,-999.0,-999.0,-999,0.04,,,0.11,,2013-05-12 13:11:00,
2013-05-12 09:42:00,60.0,-99.9,-100.00,North,-999,-999.0,-999.0,-999,0.02,,,0.13,,2013-05-12 13:42:00,
2013-05-12 09:52:00,60.0,-99.9,-100.00,North,-999,-999.0,-999.0,-999,0.02,,,0.13,,2013-05-12 13:52:00,
2013-05-12 10:02:00,60.0,-99.9,-100.00,North,-999,-999.0,-999.0,-999,0.02,,,0.13,,2013-05-12 14:02:00,
2013-05-12 10:12:00,60.0,-99.9,-100.00,North,-999,-999.0,-999.0,-999,0.02,,,0.13,,2013-05-12 14:12:00,
2013-05-12 10:42:00,60.0,-99.9,-100.00,North,-999,-999.0,-999.0,-999,0.01,,,0.14,,2013-05-12 14:42:00,
2013-05-12 10:52:00,60.0,-99.9,-100.00,North,-999,-999.0,-999.0,-999,0.01,,,0.14,,2013-05-12 14:52:00,
2013-05-12 11:02:00,60.0,-99.9,-100.00,North,-999,-999.0,-999.0,-999,0.01,,,0.14,,2013-05-12 15:02:00,
2013-05-12 11:11:00,60.0,-99.9,-100.00,North,-999,-999.0,-999.0,-999,0.01,,,0.14,,2013-05-12 15:11:00,
2013-05-12 11:43:00,59.0,-99.9,-100.00,North,-999,-999.0,-999.0,-999,0.01,,,0.15,,2013-05-12 15:43:00,
2013-05-12 11:53:00,59.0,-99.9,-100.00,North,-999,-999.0,-999.0,-999,0.01,,,0.15,,2013-05-12 15:53:00,
2013-05-12 12:03:00,59.0,-99.9,-100.00,North,-999,-999.0,-999.0,-999,0.01,,,0.15,,2013-05-12 16:03:00,
2013-05-12 12:13:00,59.0,-99.9,-100.00,North,-999,-999.0,-999.0,-999,0.01,,,0.15,,2013-05-12 16:13:00,
2013-05-12 12:42:00,60.0,-99.9,-100.00,North,-999,-999.0,-999.0,-999,0.00,,,0.15,,2013-05-12 16:42:00,
2013-05-12 12:53:00,60.0,-99.9,-100.00,North,-999,-999.0,-999.0,-999,0.00,,,0.15,,2013-05-12 16:53:00,
2013-05-12 13:02:00,60.0,-99.9,-100.00,North,-999,-999.0,-999.0,-999,0.00,,,0.15,,2013-05-12 17:02:00,
2013-05-12 13:12:00,60.0,-99.9,-100.00,North,-999,-999.0,-999.0,-999,0.00,,,0.15,,2013-05-12 17:12:00,
2013-05-12 13:42:00,64.0,-99.9,-100.00,North,-999,-999.0,-999.0,-999,0.00,,,0.15,,2013-05-12 17:42:00,
2013-05-12 13:53:00,64.0,-99.9,-100.00,North,-999,-999.0,-999.0,-999,0.00,,,0.15,,2013-05-12 17:53:00,
2013-05-12 14:02:00,64.0,-99.9,-100.00,North,-999,-999.0,-999.0,-999,0.00,,,0.15,,2013-05-12 18:02:00,
2013-05-12 14:12:00,64.0,-99.9,-100.00,North,-999,-999.0,-999.0,-999,0.00,,,0.15,,2013-05-12 18:12:00,
2013-05-12 14:42:00,67.0,-99.9,-100.00,North,-999,-999.0,-999.0,-999,0.00,,,0.15,,2013-05-12 18:42:00,
2013-05-12 14:52:00,67.0,-99.9,-100.00,North,-999,-999.0,-999.0,-999,0.00,,,0.15,,2013-05-12 18:52:00,
2013-05-12 15:01:00,67.0,-99.9,-100.00,North,-999,-999.0,-999.0,-999,0.00,,,0.15,,2013-05-12 19:01:00,
2013-05-12 15:11:00,67.0,-99.9,-100.00,North,-999,-999.0,-999.0,-999,0.00,,,0.15,,2013-05-12 19:11:00,
2013-05-12 15:42:00,68.0,-99.9,-100.00,North,-999,-999.0,-999.0,-999,0.00,,,0.15,,2013-05-12 19:42:00,
2013-05-12 15:52:00,68.0,-99.9,-100.00,North,-999,-999.0,-999.0,-999,0.00,,,0.15,,2013-05-12 19:52:00,
2013-05-12 16:02:00,68.0,-99.9,-100.00,North,-999,-999.0,-999.0,-999,0.00,,,0.15,,2013-05-12 20:02:00,
2013-05-12 16:12:00,68.0,-99.9,-100.00,North,-999,-999.0,-999.0,-999,0.00,,,0.15,,2013-05-12 20:12:00,
2013-05-12 16:42:00,68.0,-99.9,-100.00,North,-999,-999.0,-999.0,-999,0.00,,,0.15,,2013-05-12 20:42:00,
2013-05-12 16:52:00,68.0,-99.9,-100.00,North,-999,-999.0,-999.0,-999,0.00,,,0.15,,2013-05-12 20:52:00,
2013-05-12 17:02:00,68.0,-99.9,-100.00,North,-999,-999.0,-999.0,-999,0.00,,,0.15,,2013-05-12 21:02:00,
2013-05-12 17:12:00,68.0,-99.9,-100.00,North,-999,-999.0,-999.0,-999,0.00,,,0.15,,2013-05-12 21:12:00,
2013-05-12 17:43:00,67.0,-99.9,-100.00,North,-999,-999.0,-999.0,-999,0.00,,,0.15,,2013-05-12 21:43:00,
2013-05-12 17:53:00,67.0,-99.9,-100.00,North,-999,-999.0,-999.0,-999,0.00,,,0.15,,2013-05-12 21:53:00,
2013-05-12 18:03:00,67.0,-99.9,-100.00,North,-999,-999.0,-999.0,-999,0.00,,,0.15,,2013-05-12 22:03:00,
2013-05-12 18:12:00,67.0,-99.9,-100.00,North,-999,-999.0,-999.0,-999,0.00,,,0.15,,2013-05-12 22:12:00,
2013-05-12 18:42:00,60.0,-99.9,-100.00,North,-999,-999.0,-999.0,-999,0.00,,,0.14,,2013-05-12 22:42:00,
2013-05-12 18:52:00,60.0,-99.9,-100.00,North,-999,-999.0,-999.0,-999,0.00,,,0.14,,2013-05-12 22:52:00,
2013-05-12 19:02:00,60.0,-99.9,-100.00,North,-999,-999.0,-999.0,-999,0.00,,,0.14,,2013-05-12 23:02:00,
2013-05-12 19:12:00,60.0,-99.9,-100.00,North,-999,-999.0,-999.0,-999,0.00,,,0.14,,2013-05-12 23:12:00,
2013-05-12 19:42:00,58.0,-99.9,-100.00,North,-999,-999.0,-999.0,-999,0.00,,,0.11,,2013-05-12 23:42:00,
2013-05-12 19:52:00,58.0,-99.9,-100.00,North,-999,-999.0,-999.0,-999,0.00,,,0.11,,2013-05-12 23:52:00,
2013-05-12 20:02:00,58.0,-99.9,-100.00,North,-999,-999.0,-999.0,-999,0.00,,,0.11,,2013-05-13 00:02:00,
2013-05-12 20:11:00,58.0,-99.9,-100.00,North,-999,-999.0,-999.0,-999,0.00,,,0.11,,2013-05-13 00:11:00,
2013-05-12 20:42:00,54.0,-99.9,-100.00,North,-999,-999.0,-999.0,-999,0.00,,,0.10,,2013-05-13 00:42:00,
2013-05-12 20:52:00,54.0,-99.9,-100.00,North,-999,-999.0,-999.0,-999,0.00,,,0.10,,2013-05-13 00:52:00,
2013-05-12 21:02:00,54.0,-99.9,-100.00,North,-999,-999.0,-999.0,-999,0.00,,,0.10,,2013-05-13 01:02:00,
2013-05-12 21:11:00,54.0,-99.9,-100.00,North,-999,-999.0,-999.0,-999,0.00,,,0.10,,2013-05-13 01:11:00,
2013-05-12 21:42:00,53.0,-99.9,-100.00,North,-999,-999.0,-999.0,-999,0.00,,,0.10,,2013-05-13 01:42:00,
2013-05-12 21:52:00,53.0,-99.9,-100.00,North,-999,-999.0,-999.0,-999,0.00,,,0.10,,2013-05-13 01:52:00,
2013-05-12 22:02:00,53.0,-99.9,-100.00,North,-999,-999.0,-999.0,-999,0.00,,,0.10,,2013-05-13 02:02:00,
2013-05-12 22:11:00,53.0,-99.9,-100.00,North,-999,-999.0,-999.0,-999,0.00,,,0.10,,2013-05-13 02:11:00,
2013-05-12 22:42:00,50.0,-99.9,-100.00,North,-999,-999.0,-999.0,-999,0.00,,,0.10,,2013-05-13 02:42:00,
2013-05-12 22:52:00,50.0,-99.9,-100.00,North,-999,-999.0,-999.0,-999,0.00,,,0.10,,2013-05-13 02:52:00,
2013-05-12 23:02:00,50.0,-99.9,-100.00,North,-999,-999.0,-999.0,-999,0.00,,,0.10,,2013-05-13 03:02:00,
2013-05-12 23:12:00,50.0,-99.9,-100.00,North,-999,-999.0,-999.0,-999,0.00,,,0.10,,2013-05-13 03:12:00,
2013-05-12 23:42:00,46.0,-99.9,-100.00,North,-999,-999.0,-999.0,-999,0.00,,,0.10,,2013-05-13 03:42:00,
2013-05-12 23:53:00,46.0,-99.9,-100.00,North,-999,-999.0,-999.0,-999,0.00,,,0.10,,2013-05-13 03:53:00,